Mountain Home, AR

1:57 AM CST on January 24, 2018 (GMT -0600)
Baxter County Regional

Weather History for KBPK - September, 2013

Change the Weather History Date:

Monday, September 2, 2013

  Actual Average (KFLP) Record (KFLP)
Temperature  
Mean Temperature 78 °F -  
Max Temperature 88 °F 87 °F 105 °F (2000)
Min Temperature 70 °F 63 °F 57 °F (2004)
Cooling Degree Days 14    
Growing Degree Days 28 (Base 50)    
Moisture  
Dew Point 67 °F    
Average Humidity 77    
Maximum Humidity 100    
Minimum Humidity 40    
Precipitation  
Precipitation 0.01 in - - ()
Sea Level Pressure  
Sea Level Pressure 29.91 in    
Wind  
Wind Speed 1 mph (North)    
Max Wind Speed 8 mph    
Max Gust Speed -    
Visibility 6 miles    
Events Fog    
Averages and records for this station are not official NWS values.
T = Trace of Precipitation, MM = Missing Value Source: NWS Daily Summary

Daily Weather History Graph

Daily Weather History Graph

Search for Another Location

Airport or City:

Trip Planner

Search our weather history database for the weather conditions in past years. The results will help you decide how hot, cold, wet, or windy it might be!

Date:

Astronomy

Sep. 02, 2013 Rise Set
Actual Time 6:42 AM CDT 7:35 PM CDT
Civil Twilight 6:16 AM CDT 8:02 PM CDT
Nautical Twilight 5:44 AM CDT 8:33 PM CDT
Astronomical Twilight 5:12 AM CDT 9:05 PM CDT
Moon 4:02 AM CDT (9/2) 5:47 PM CDT (9/2)
Length of Visible Light 13h 46m
Length of Day
12h 53m
Waning Crescent, 8% of the Moon is Illuminated
Sep 2
Waning Crescent
Sep 5
New
Sep 12
First Quarter
Sep 19
Full
Sep 26
Last Quarter

Hourly Weather History & Observations

Time (CDT) Temp. Heat Index Dew Point Humidity Pressure Visibility Wind Dir Wind Speed Gust Speed Precip Events Conditions
12:53 AM 71.1 °F - 69.1 °F 93% 29.87 in 4.0 mi Calm Calm - N/A   Clear
1:01 AM 71.6 °F - 69.8 °F 94% 29.90 in 2.5 mi Calm Calm - N/A   Scattered Clouds
1:05 AM 71.6 °F - 69.8 °F 94% 29.90 in 1.2 mi Calm Calm - N/A   Mostly Cloudy
1:42 AM 73.4 °F - 71.6 °F 94% 29.90 in 0.8 mi Calm Calm - N/A   Overcast
1:51 AM 71.6 °F - 69.8 °F 94% 29.90 in 2.0 mi Calm Calm - N/A   Overcast
1:52 AM 72.0 °F - 70.0 °F 93% 29.87 in 2.5 mi Calm Calm - N/A   Overcast
2:01 AM 71.6 °F - 69.8 °F 94% 29.90 in 3.0 mi Calm Calm - N/A   Mostly Cloudy
2:18 AM 71.6 °F - 69.8 °F 94% 29.89 in 1.8 mi Calm Calm - N/A   Mostly Cloudy
2:23 AM 71.6 °F - 69.8 °F 94% 29.90 in 0.5 mi Calm Calm - N/A Fog Fog
2:33 AM 71.6 °F - 71.6 °F 100% 29.90 in 0.2 mi Calm Calm - N/A Fog Fog
2:50 AM 71.6 °F - 71.6 °F 100% 29.90 in 0.8 mi Calm Calm - N/A   Mist
2:51 AM 72.0 °F - 71.1 °F 97% 29.87 in 0.8 mi Calm Calm - N/A   Mist
2:58 AM 71.6 °F - 69.8 °F 94% 29.90 in 1.8 mi Calm Calm - N/A   Mostly Cloudy
3:05 AM 73.4 °F - 71.6 °F 94% 29.90 in 2.5 mi Calm Calm - N/A   Scattered Clouds
3:13 AM 71.6 °F - 71.6 °F 100% 29.90 in 3.0 mi Calm Calm - N/A   Scattered Clouds
3:53 AM 73.0 °F - 71.1 °F 93% 29.86 in 4.0 mi NNW 3.5 mph - N/A   Partly Cloudy
4:30 AM 73.4 °F - 71.6 °F 94% 29.89 in 3.0 mi Variable 3.5 mph - 0.01 in   Partly Cloudy
4:53 AM 72.0 °F - 71.1 °F 97% 29.87 in 3.0 mi Calm Calm - 0.01 in   Partly Cloudy
5:53 AM 72.0 °F - 70.0 °F 93% 29.88 in 4.0 mi NW 3.5 mph - N/A   Clear
6:53 AM 70.0 °F - 68.0 °F 93% 29.90 in 3.0 mi Calm Calm - N/A   Clear
7:53 AM 72.0 °F - 66.9 °F 84% 29.92 in 8.0 mi North 3.5 mph - N/A   Clear
8:53 AM 75.0 °F - 64.0 °F 69% 29.94 in 9.0 mi NNE 8.1 mph - N/A   Clear
9:53 AM 78.1 °F - 62.1 °F 58% 29.95 in 10.0 mi NNE 4.6 mph - N/A   Clear
10:53 AM 82.0 °F 83.1 °F 63.0 °F 52% 29.96 in 10.0 mi Variable 3.5 mph - N/A   Clear
11:53 AM 84.0 °F 85.4 °F 64.0 °F 51% 29.96 in 10.0 mi Calm Calm - N/A   Clear
12:53 PM 84.0 °F 84.9 °F 63.0 °F 49% 29.95 in 10.0 mi NNE 3.5 mph - N/A   Partly Cloudy
1:53 PM 87.1 °F 88.3 °F 64.0 °F 46% 29.94 in 10.0 mi Calm Calm - N/A   Partly Cloudy
2:53 PM 86.0 °F 86.8 °F 63.0 °F 46% 29.91 in 10.0 mi Calm Calm - N/A   Mostly Cloudy
3:53 PM 84.0 °F 84.4 °F 61.0 °F 46% 29.90 in 10.0 mi Calm Calm - N/A   Clear
4:53 PM 87.1 °F 86.7 °F 60.1 °F 40% 29.89 in 10.0 mi Calm Calm - N/A   Clear
5:53 PM 84.9 °F 85.4 °F 62.1 °F 46% 29.89 in 10.0 mi Variable 4.6 mph - N/A   Clear
6:53 PM 81.0 °F 82.2 °F 63.0 °F 54% 29.90 in 9.0 mi Calm Calm - N/A   Clear
7:53 PM 75.0 °F - 62.1 °F 64% 29.91 in 10.0 mi Calm Calm - N/A   Clear
8:53 PM 73.9 °F - 60.1 °F 62% 29.92 in 10.0 mi Calm Calm - N/A   Clear
9:53 PM 73.9 °F - 59.0 °F 59% 29.94 in 10.0 mi Calm Calm - N/A   Clear
10:53 PM 72.0 °F - 57.9 °F 61% 29.95 in 10.0 mi Variable 3.5 mph - N/A   Clear
11:53 PM 70.0 °F - 59.0 °F 68% 29.96 in 10.0 mi Calm Calm - N/A   Clear